This is the latest recevied weather packets stored in our database for station/object WB4FAY-4. If no packets are shown the sender has not sent any weather packets the latest 10 day(s).
| Time | Temp. | Humidity | Pressure | Rain* | Wind** | Luminosity | Snow |
|---|---|---|---|---|---|---|---|
| 1777662617 | 18.89° C | 55% | 1015.6 hPa | 0.25 mm | - | - | - |
| 1777662318 | 18.89° C | 51% | 1015.6 hPa | 0.25 mm | - | - | - |
| 1777662018 | 18.89° C | 51% | 1015.6 hPa | 0.25 mm | - | - | - |
| 1777661718 | 18.89° C | 52% | 1015.7 hPa | 0.25 mm | - | - | - |
| 1777661417 | 19.44° C | 52% | 1015.7 hPa | 0.25 mm | - | - | - |
| 1777661118 | 19.44° C | 52% | 1015.6 hPa | 0.25 mm | - | - | - |
| 1777660817 | 19.44° C | 55% | 1015.4 hPa | 0.25 mm | - | - | - |
| 1777660518 | 19.44° C | 56% | 1015.4 hPa | 0.25 mm | - | - | - |
| 1777660217 | 18.89° C | 53% | 1015.4 hPa | 0.25 mm | - | - | - |
| 1777659917 | 19.44° C | 55% | 1015.4 hPa | 0.25 mm | - | - | - |
| 1777659618 | 19.44° C | 55% | 1015.3 hPa | 0.25 mm | - | - | - |
| 1777659318 | 19.44° C | 57% | 1015.3 hPa | 0.25 mm | - | - | - |
| 1777659017 | 19.44° C | 59% | 1015.4 hPa | 0.25 mm | - | - | - |
| 1777658717 | 18.89° C | 60% | 1015.5 hPa | 0.25 mm | - | - | - |
| 1777658418 | 18.89° C | 62% | 1015.5 hPa | 0.25 mm | - | - | - |
| 1777658117 | 18.89° C | 63% | 1015.5 hPa | 0.25 mm | - | - | - |
| 1777657817 | 18.89° C | 66% | 1015.6 hPa | 0.25 mm | - | - | - |
| 1777657518 | 18.33° C | 62% | 1015.7 hPa | 0.25 mm | - | - | - |
| 1777657217 | 18.33° C | 66% | 1015.9 hPa | 0.25 mm | - | - | - |
| 1777656917 | 18.33° C | 66% | 1016 hPa | 0.25 mm | - | - | - |
| 1777656618 | 17.78° C | 65% | 1016.1 hPa | 0.25 mm | - | - | - |
| 1777656317 | 17.78° C | 69% | 1016.2 hPa | 0.25 mm | - | - | - |
| 1777656017 | 17.78° C | 67% | 1016.3 hPa | 0.25 mm | - | - | - |
| 1777655718 | 17.22° C | 69% | 1016.4 hPa | 0.25 mm | - | - | - |
| 1777655417 | 17.22° C | 68% | 1016.3 hPa | 0.25 mm | - | - | - |
* Rain latest 24 hours (hover to see other rain measurements)
** Current wind speed in m/s (hover to see current wind gust speed)